Weather in Ust'-Shonosha

Russia / Arkhangel'skaya Oblast'     61°08′40″N   41°22′32″E
temp.,
°C
wind,
m/s
gust,
m/s
humid.,
%
clouds,
%
prec.,
mm/h
press.,
hPa
HPBL,
m
14 april, wed
wed1400:00+8ssw2996100 0.0 1020213
03:00+7ssw2698100 0.0 1020126
06:00+6s1410061 0.0 101881
09:00+11ssw4147591 0.0 1016467
12:00+17ssw5135930 0.0 10151137
15:00+17sw613628 0.4 10141565
18:00+11nw5890100 1.4 1015543
21:00+5nnw4889100 1.8 1019668
15 april, thu
thu1500:00+4nnw2884100 0.1 1021572
03:00+3nnw278793 0.1 1022441
06:00+2n388698 0.0 1025544
09:00+4n4661100 0.0 1027792
12:00+6n464352 0.0 10281218
15:00+7n46393 0.0 10291439
18:00+6nne46511 0.0 10301205
21:00+2nne27710 0.0 1032178
16 april, fri
fri1600:000ne26760 0.0 1033116
03:00−1ne23735 0.0 103477
06:000ne12625 0.0 103481
09:00+4n12365 0.0 1034514
12:00+8nnw23350 0.0 1033957
15:00+9nnw23363 0.0 10331184
18:00+8n25480 0.0 1032359
21:00+4nnw22715 0.0 103318
17 april, sat
sat1700:00+2n22835 0.0 103444
03:00+1nnw22890 0.0 103523
06:00+1nnw268664 0.0 1036131
09:00+6nnw36645 0.0 1035622
12:00+9n35475 0.0 10351213
15:00+10n354226 0.0 10341418
18:00+9nnw35525 0.0 1034845
21:00+5nnw22725 0.0 103437
18 april, sun
sun1800:00+3nnw24815 0.0 103569
03:00+2n22870 0.0 103526
06:00+2n12860 0.0 103645
09:00+7n12614 0.0 1036570
12:00+10n23465 0.0 10351470
15:00+11n223916 0.0 10351882
18:00+11nne124462 0.0 1034123
21:00+6se246772 0.0 103578